TimeCST,TemperatureF,Dew PointF,Humidity,Sea Level PressureIn,VisibilityMPH,Wind Direction,Wind SpeedMPH,Gust SpeedMPH,PrecipitationIn,Events,Conditions,WindDirDegrees,DateUTC
12:12 AM,21.2,16.7,83,30.03,10.0,SSW,5.8,-,N/A,,Overcast,210,2013-01-02 06:12:00
12:32 AM,21.2,16.7,83,30.03,10.0,SW,5.8,-,N/A,,Overcast,220,2013-01-02 06:32:00
12:52 AM,21.0,16.5,83,30.02,10.0,South,4.6,-,N/A,,Overcast,190,2013-01-02 06:52:00
1:12 AM,20.7,16.2,83,30.02,10.0,SSW,6.9,-,N/A,,Overcast,200,2013-01-02 07:12:00
1:32 AM,20.3,15.8,83,30.01,10.0,SW,5.8,-,N/A,,Overcast,220,2013-01-02 07:32:00
1:52 AM,20.1,15.6,83,30.01,10.0,SSW,5.8,-,N/A,,Overcast,210,2013-01-02 07:52:00
2:12 AM,19.9,15.6,83,30.01,10.0,SSW,5.8,-,N/A,,Overcast,200,2013-01-02 08:12:00
2:32 AM,19.6,15.6,85,30.02,10.0,SW,6.9,-,N/A,,Overcast,220,2013-01-02 08:32:00
2:52 AM,19.4,15.6,85,30.02,7.0,SSW,5.8,-,N/A,,Overcast,210,2013-01-02 08:52:00
3:12 AM,18.9,14.9,85,30.02,7.0,South,8.1,-,N/A,,Overcast,190,2013-01-02 09:12:00
3:32 AM,17.6,13.6,84,30.01,4.0,South,5.8,-,N/A,Snow,Light Snow,180,2013-01-02 09:32:00
3:52 AM,17.2,13.3,84,30.00,10.0,South,6.9,-,N/A,,Overcast,180,2013-01-02 09:52:00
4:12 AM,17.1,13.5,86,29.99,7.0,South,5.8,-,N/A,,Overcast,180,2013-01-02 10:12:00
4:32 AM,17.1,14.0,88,29.98,7.0,SSE,4.6,-,N/A,,Overcast,160,2013-01-02 10:32:00
4:52 AM,16.3,13.1,87,29.98,7.0,SSE,5.8,-,N/A,,Overcast,160,2013-01-02 10:52:00
5:12 AM,16.3,13.5,88,29.97,7.0,SSE,5.8,-,N/A,,Overcast,160,2013-01-02 11:12:00
5:32 AM,15.8,12.6,87,29.97,7.0,SSE,4.6,-,N/A,,Overcast,160,2013-01-02 11:32:00
6:12 AM,15.8,12.4,86,29.97,5.0,SSE,5.8,-,N/A,,Overcast,160,2013-01-02 12:12:00
6:32 AM,15.8,12.7,88,29.97,4.0,South,4.6,-,N/A,,Overcast,170,2013-01-02 12:32:00
6:52 AM,15.8,12.9,88,29.97,4.0,SSW,5.8,-,N/A,,Overcast,210,2013-01-02 12:52:00
7:12 AM,15.6,13.5,91,29.97,5.0,SSW,5.8,-,N/A,,Overcast,210,2013-01-02 13:12:00
7:32 AM,15.4,13.5,92,29.99,4.0,South,5.8,-,N/A,,Overcast,190,2013-01-02 13:32:00
7:52 AM,14.7,12.7,92,29.99,5.0,SSW,6.9,-,N/A,,Overcast,200,2013-01-02 13:52:00
8:12 AM,14.5,12.2,90,29.99,5.0,South,6.9,-,N/A,,Overcast,170,2013-01-02 14:12:00
8:32 AM,14.4,11.8,90,29.99,5.0,South,5.8,-,N/A,,Overcast,190,2013-01-02 14:32:00
8:52 AM,14.0,11.3,89,29.99,5.0,SSW,6.9,-,N/A,,Overcast,200,2013-01-02 14:52:00
9:12 AM,14.4,11.7,89,29.99,2.0,SSE,4.6,-,N/A,Snow,Light Snow,160,2013-01-02 15:12:00
9:32 AM,13.8,10.9,88,29.99,2.0,SSE,4.6,-,N/A,Snow,Light Snow,160,2013-01-02 15:32:00
9:52 AM,14.0,11.3,89,30.00,1.8,SSE,3.5,-,N/A,Snow,Light Snow,160,2013-01-02 15:52:00
10:12 AM,14.4,11.3,88,30.00,0.8,SSW,3.5,-,N/A,Snow,Light Snow,200,2013-01-02 16:12:00
10:32 AM,14.5,11.8,89,30.01,4.0,SW,6.9,-,N/A,,Overcast,220,2013-01-02 16:32:00
10:52 AM,14.4,11.7,89,29.99,4.0,SSW,3.5,-,N/A,,Overcast,200,2013-01-02 16:52:00
11:12 AM,14.5,11.8,89,29.99,3.0,SSW,4.6,-,N/A,Snow,Light Snow,210,2013-01-02 17:12:00
11:32 AM,14.5,11.5,88,29.98,2.0,Calm,Calm,-,N/A,Snow,Light Snow,0,2013-01-02 17:32:00
11:52 AM,14.5,10.8,85,29.97,2.5,SE,3.5,-,N/A,Snow,Light Snow,140,2013-01-02 17:52:00
12:12 PM,14.7,10.8,84,29.96,4.0,SE,4.6,-,N/A,Snow,Light Snow,140,2013-01-02 18:12:00
12:32 PM,14.9,10.9,84,29.96,5.0,Calm,Calm,-,N/A,,Overcast,0,2013-01-02 18:32:00
12:52 PM,14.9,11.1,85,29.96,5.0,SE,4.6,-,N/A,,Overcast,140,2013-01-02 18:52:00
1:12 PM,14.9,11.3,86,29.96,5.0,SE,4.6,-,N/A,,Overcast,140,2013-01-02 19:12:00
1:32 PM,14.9,11.5,86,29.96,5.0,SSE,4.6,-,N/A,,Overcast,160,2013-01-02 19:32:00
1:52 PM,15.1,11.5,86,29.96,4.0,SE,3.5,-,N/A,,Overcast,130,2013-01-02 19:52:00
2:12 PM,15.3,11.3,84,29.97,5.0,SE,5.8,-,N/A,,Overcast,140,2013-01-02 20:12:00
2:32 PM,15.6,11.8,85,29.96,5.0,SE,5.8,-,N/A,Snow,Light Snow,130,2013-01-02 20:32:00
2:52 PM,15.8,11.8,84,29.97,4.0,SE,4.6,-,N/A,Snow,Light Snow,140,2013-01-02 20:52:00
3:12 PM,15.8,12.0,85,29.98,4.0,SSE,3.5,-,N/A,Snow,Light Snow,150,2013-01-02 21:12:00
3:32 PM,16.2,12.0,84,29.99,1.2,SSE,4.6,-,N/A,Snow,Light Snow,160,2013-01-02 21:32:00
3:52 PM,16.2,12.2,84,29.99,1.5,SE,3.5,-,N/A,Snow,Light Snow,140,2013-01-02 21:52:00
4:12 PM,16.2,12.2,84,29.99,1.8,Calm,Calm,-,N/A,Snow,Light Snow,0,2013-01-02 22:12:00
4:32 PM,16.2,12.2,84,29.99,4.0,Calm,Calm,-,N/A,,Overcast,0,2013-01-02 22:32:00
4:52 PM,16.2,12.4,85,30.00,5.0,Calm,Calm,-,N/A,,Overcast,0,2013-01-02 22:52:00
5:12 PM,16.5,12.7,85,30.01,7.0,SSE,3.5,-,N/A,,Overcast,160,2013-01-02 23:12:00
5:32 PM,16.7,12.7,84,30.01,7.0,Calm,Calm,-,N/A,,Overcast,0,2013-01-02 23:32:00
5:52 PM,16.7,12.9,85,30.02,7.0,SSE,3.5,-,N/A,,Overcast,160,2013-01-02 23:52:00
6:12 PM,16.9,13.1,85,30.02,7.0,SSE,3.5,-,N/A,,Overcast,160,2013-01-03 00:12:00
6:52 PM,17.1,13.1,84,30.03,7.0,South,3.5,-,N/A,,Overcast,170,2013-01-03 00:52:00
7:12 PM,17.1,13.1,84,30.03,5.0,South,3.5,-,N/A,,Overcast,170,2013-01-03 01:12:00
7:32 PM,17.2,13.1,84,30.04,5.0,Calm,Calm,-,N/A,,Overcast,0,2013-01-03 01:32:00
7:52 PM,17.4,13.6,85,30.04,4.0,Calm,Calm,-,N/A,,Overcast,0,2013-01-03 01:52:00
8:12 PM,17.6,13.6,84,30.04,7.0,Calm,Calm,-,N/A,,Overcast,0,2013-01-03 02:12:00
8:32 PM,17.6,13.8,85,30.04,7.0,Calm,Calm,-,N/A,,Mostly Cloudy,0,2013-01-03 02:32:00
8:52 PM,18.0,14.0,84,30.03,7.0,Calm,Calm,-,N/A,,Mostly Cloudy,0,2013-01-03 02:52:00
9:12 PM,18.1,14.0,84,30.04,5.0,Calm,Calm,-,N/A,,Mostly Cloudy,0,2013-01-03 03:12:00
9:32 PM,18.3,14.5,85,30.04,5.0,Calm,Calm,-,N/A,,Mostly Cloudy,0,2013-01-03 03:32:00
9:52 PM,18.3,14.9,86,30.05,5.0,Calm,Calm,-,N/A,,Scattered Clouds,0,2013-01-03 03:52:00
10:12 PM,18.5,15.3,87,30.05,5.0,Calm,Calm,-,N/A,,Mostly Cloudy,0,2013-01-03 04:12:00
10:32 PM,18.9,15.8,88,30.06,5.0,Calm,Calm,-,N/A,,Mostly Cloudy,0,2013-01-03 04:32:00
10:52 PM,19.4,16.5,89,30.07,5.0,Calm,Calm,-,N/A,,Overcast,0,2013-01-03 04:52:00
11:12 PM,20.3,17.6,89,30.07,4.0,Calm,Calm,-,N/A,Snow,Light Snow,0,2013-01-03 05:12:00
11:32 PM,21.0,18.0,88,30.06,5.0,Calm,Calm,-,N/A,,Overcast,0,2013-01-03 05:32:00
11:52 PM,21.2,18.1,88,30.07,5.0,West,3.5,-,N/A,,Overcast,270,2013-01-03 05:52:00